Orbcomm
NORAD ID: 32792
Int'l Code: 2008-021K
Perigee: 624.3 km
Apogee: 664.2 km
Inclination: 97.7 °
Period: 97.5 minutes
Semi major axis: 7015 km
Launch date: April 28, 2008
Source: Germany (GER)
Comments: A German instrument [RUBIN-8] remained attached to the PSLV's fourth stage to conduct communications testing for a system used to relay navigation data from ships through the commercial ORBCOMM satellite fleet.
Two Line Element Set (TLE):
1 32792U 08021K 13144.67722426 .00000761 00000-0 11290-3 0 6079
2 32792 097.6814 169.2194 0028409 002.9506 357.1867 14.77543016273183
Source: AFSPC
NASA's NSSDC Master Catalog entry for RUBIN 8/PSLV